#timestamp,LO_Frequency,Hit 
1498435215.3,286047001.6,N
1498435235.2,286047004.4,N
1498435255.9,286047001.9,N
1498435275.7,286047004.3,N
1498435295.6,286047001.4,N
1498435315.4,286047000.0,N
1498435335.2,286047002.6,N
1498435355.1,286047000.2,N
1498435356.0,286047000.2,N
1498435375.8,286047001.7,N
1498435395.6,286047001.7,N
1498435415.4,286047002.0,N
1498435435.3,286047002.6,N
1498435455.1,286047000.0,N
1498435475.8,286047001.8,N
1498435495.7,286047003.8,N
1498435515.5,286047001.8,N
1498435535.3,286047002.1,N
1498435555.2,286046999.7,N
1498435575.9,286047000.6,N
1498435595.7,286047000.8,N
1498435615.6,286047002.2,N
1498435635.4,286047000.1,N
1498435655.2,286047001.8,N
1498435675.0,286047000.0,N
1498435676.0,286047000.0,N
1498435695.8,286047002.3,N
1498435715.6,286047001.9,N
1498435735.4,286047002.5,N
1498435755.3,286047001.9,N
1498435775.1,286047004.3,N
1498435795.8,286047003.6,N
1498435815.7,286047004.2,N
1498435835.5,286047004.3,N
1498435855.3,286047002.1,N
1498435875.2,286047004.0,N
1498435895.9,286047003.9,N
1498435915.7,286047001.5,N
1498435935.6,286047004.4,N
1498435955.4,286047004.0,N
1498435975.2,286047002.2,N
1498435995.1,286047004.1,N
1498435996.0,286047004.1,N
1498436015.8,286047002.9,N
1498436035.6,286047005.5,N
1498436055.4,286047005.8,N
1498436075.3,286047003.6,N
1498436095.1,286047005.9,N
1498436115.8,286047005.8,N
1498436135.7,286047002.9,N
1498436155.5,286047004.2,N
1498436175.3,286047001.7,N
1498436195.2,286047001.5,N
1498436215.9,286047001.8,N
1498436235.7,286047002.5,N
1498436255.6,286047003.6,N
1498436275.4,286047005.5,N
1498436295.2,286047005.3,N
1498436315.0,286047005.7,N
1498436316.0,286047005.7,N
1498436335.8,286047003.6,N
1498436355.6,286047003.0,N
1498436375.4,286047004.8,N
1498436395.3,286047003.5,N
1498436415.1,286047004.0,N
1498436435.8,286047004.2,N
1498436455.7,286047001.7,N
1498436475.5,286047002.6,N
1498436495.3,286047002.7,N
1498436515.2,286047002.6,N
1498436535.9,286047001.3,N
1498436555.7,286047003.4,N
1498436575.6,286047007.0,N
1498436595.4,286047007.6,N
1498436615.2,286047007.6,N
1498436635.0,286047004.7,N
1498436635.9,286047004.7,N
1498436655.8,286047003.6,N
1498436675.6,286047004.3,N
1498436695.4,286047003.2,N
1498436715.3,286047004.0,N
1498436735.1,286047003.9,N
1498436755.8,286047001.6,N
1498436775.7,286047001.5,N
1498436795.5,286047003.8,N
1498436815.3,286047005.9,N
1498436835.2,286047005.7,N
1498436855.9,286047003.7,N
1498436875.7,286047003.5,N
1498436895.5,286047003.8,N
1498436915.4,286047003.5,N
1498436935.2,286047004.2,N
1498436955.0,286047003.7,N
1498436955.9,286047003.7,N
1498436975.8,286047003.6,N
1498436995.6,286047004.8,N
1498437015.4,286047003.0,N
1498437035.3,286047003.4,N
1498437055.1,286047005.2,N
1498437075.8,286047005.8,N
1498437095.7,286047005.5,N
1498437115.5,286047003.3,N
1498437135.3,286047004.9,N
1498437155.2,286047008.2,N
1498437175.9,286047006.4,N
1498437195.7,286047005.3,N
1498437215.5,286047005.4,N
1498437235.4,286047004.6,N
1498437255.2,286047005.2,N
1498437275.0,286047007.2,N
1498437275.9,286047007.2,N
1498437295.8,286047008.1,N
1498437315.6,286047012.3,N
1498437335.4,286047009.6,N
1498437355.3,286047009.2,N
1498437375.1,286047006.7,N
1498437376.0,286047006.7,N
1498437395.8,286047006.1,N
1498437415.7,286047007.0,N
1498437435.5,286047004.8,N
1498437455.3,286047005.3,N
1498437475.2,286047005.3,N
1498437495.9,286047007.5,N
1498437515.7,286047005.2,N
1498437535.6,286047006.9,N
1498437555.4,286047004.7,N
1498437575.2,286047007.5,N
1498437595.0,286047008.2,N
1498437595.9,286047008.2,N
1498437615.8,286047007.9,N
1498437635.6,286047008.6,N
1498437655.4,286047008.3,N
1498437675.3,286047006.7,N
1498437695.1,286047004.8,N
1498437696.0,286047004.8,N
1498437715.8,286047005.5,N
1498437735.7,286047006.0,N
1498437755.5,286047005.6,N
1498437775.3,286047004.0,N
1498437795.2,286047003.5,N
1498437815.9,286047003.3,N
1498437835.7,286047003.0,N
1498437855.5,286047008.7,N
1498437875.4,286047010.6,N
1498437895.2,286047007.9,N
1498437915.0,286047009.1,N
1498437915.9,286047009.1,N
1498437935.8,286047009.1,N
1498437955.6,286047008.2,N
1498437975.4,286047008.1,N
1498437995.3,286047008.4,N
1498438015.1,286047006.1,N
1498438035.8,286047006.7,N
1498438055.7,286047008.5,N
1498438075.5,286047008.9,N
1498438095.3,286047006.6,N
1498438115.2,286047007.1,N
1498438135.9,286047006.8,N
1498438155.7,286047007.0,N
1498438175.6,286047004.5,N
1498438195.4,286047004.6,N
1498438215.2,286047004.5,N
1498438235.0,286047004.7,N
1498438235.9,286047004.7,N
1498438255.8,286047006.3,N
1498438275.6,286047006.2,N
1498438295.4,286047006.6,N
1498438315.3,286047006.6,N
1498438335.1,286047008.0,N
1498438355.8,286047008.7,N
1498438375.7,286047008.7,N
1498438395.5,286047008.2,N
1498438415.3,286047008.0,N
1498438435.2,286047007.9,N
1498438455.9,286047008.9,N
1498438475.7,286047008.6,N
1498438495.6,286047008.5,N
1498438515.4,286047012.2,N
1498438535.2,286047011.4,N
1498438555.0,286047012.3,N
1498438555.9,286047012.3,N
1498438575.8,286047012.3,N
1498438595.6,286047012.1,N
1498438615.4,286047012.0,N
1498438635.3,286047012.0,N
1498438655.1,286047013.4,N
1498438656.0,286047013.4,N
1498438675.8,286047013.9,N
1498438695.7,286047014.0,N
1498438715.5,286047011.1,N
1498438735.3,286047009.4,N
1498438755.2,286047010.7,N
1498438775.9,286047010.1,N
1498438795.7,286047008.2,N
